Charter Quote
Worldwide +1-877-727-2538 Call
Select Language Lang
SAFETY RELIABILITY EXPERIENCE

Private Jet Charter Services - Quanzhou Airport (ZSQZ)

Paramount Business Jets offers private jet charter flights and luxury airliner charters to and from Quanzhou Airport.

AIRPORT INFORMATION
ICAOZSQZ
LOCATIONQuanzhou, China
FACILITY TYPEAIRPORT

At Paramount Business Jets you can hire chartered private jets to and from Quanzhou Airport with as little as 4 hours of notice. All flights booked via Paramount Business Jets are operated by certified direct air carriers that meet and exceed the FAA part 135 and 121 protocol or a foreign equivalent safety authority. Furthermore, Paramount Business Jets subscribes to ARGUS for their third party safety checks of operators, aircraft, and crews prior each and every flight to and from Quanzhou Airport and worldwide.

  • Quote a trip using Quanzhou Airport or call us 24/7 - 365 days a year at +1-877-727-2538.
Questions? Call +1-877-727-2538

METAR Weather Data at Quanzhou Airport, ZSQZ

STATIONZSQZ
OBSERVEDSat Nov 2, 09:00 UTC
NOWThu Nov 14, 17:17 UTC
AGE296:17 hr ago
WINDENE at 11 mph
VISIBILITYgreater than 7 miles
CLOUDSclear skies
TEMP75°F (24°C)
DEWPT63°F (17°C)
HUMIDITY65%
BAROMETER1014 hPa (29.94 in Hg)
METARZSQZ 020900Z 07005MPS CAVOK 24/17 Q1014 NOSIG

Call us on +1-877-727-2538 (24 Hours), Check our Pricing, or Get a Quick Quote.

Find Airports Near any Location

Processing
...